[[{"header":{"parameterUnit":"m.s-1","parameterCategory":2,"la1":30.2991,"la2":30.254,"lo1":-89.0895,"lo2":-89.0444,"dy":0.0017,"dx":0.0017,"nx":28,"ny":28,"refTime":"2024-03-05T09:00:00:Z","depth":"0","parameterNumber":2,"parameterNumberName":"U-component_of_CURRENTS"},"data":[0,0,0,0,0,0,0,0,0,0,0,0,0,0,0,0,0,0,0,0,0,0,0,0,0,0,0,0,0,0,0,0,0,0,0,0,0,0,0,0,0,0,0,0,0,0,0,0,0,0,0,0,0,0,0,0,0,0,-0.1283,-0.1284,0,-0.1331,-0.1332,-0.1332,-0.132,-0.132,-0.1319,-0.1318,-0.13,-0.13,-0.1301,0,0,0,0,0,0,0,0,0,0,0,0,0,-0.1221,-0.1222,-0.1283,-0.1284,-0.1284,-0.1331,-0.1332,-0.1332,-0.1321,-0.132,-0.1319,-0.1318,-0.13,-0.13,-0.1301,0,0,0,0,0,0,0,0,0,0,0,0,0,-0.1255,-0.1222,-0.1283,-0.1285,-0.1286,-0.1331,-0.1332,-0.1333,-0.1321,-0.132,-0.1318,-0.1317,-0.13,-0.13,-0.1301,-0.1327,0,0,-0.1302,-0.1302,0,0,0,0,0,0,0,0,-0.1253,-0.1257,-0.1284,-0.1285,-0.1286,-0.132,-0.1304,-0.1328,-0.1321,-0.1306,-0.1318,-0.1317,-0.1303,-0.1303,-0.1313,-0.1326,-0.1326,-0.1302,-0.1302,-0.1302,-0.1303,0,0,0,0,0,0,0,-0.1251,-0.1255,-0.1301,-0.1285,-0.1286,-0.1298,-0.1301,-0.1309,-0.1308,-0.1307,-0.1307,-0.1315,-0.1302,-0.1313,-0.1313,-0.1325,-0.1302,-0.1302,-0.1303,-0.1303,-0.1381,-0.1382,0,0,0,0,0,0,-0.1247,-0.1253,-0.1299,-0.1302,-0.1268,-0.13,-0.1304,-0.1309,-0.1309,-0.1309,-0.1316,-0.1314,-0.1313,-0.1312,-0.1312,-0.1354,-0.1302,-0.1303,-0.1303,-0.1379,-0.1381,-0.1383,0,0,0,0,0,0,-0.1246,-0.1251,-0.1297,-0.128,-0.1287,-0.1302,-0.1309,-0.1311,-0.132,-0.1317,-0.1315,-0.1323,-0.1312,-0.1311,-0.1332,-0.1352,-0.1303,-0.1303,-0.1377,-0.138,-0.1382,-0.1431,0,0,0,0,0,0,-0.1244,-0.125,-0.1253,-0.128,-0.1288,-0.1329,-0.131,-0.1313,-0.1327,-0.1326,-0.1323,-0.132,-0.1311,-0.1331,-0.1332,-0.1352,-0.1304,-0.1374,-0.1378,-0.1381,-0.1427,-0.1435,-0.1442,0,0,0,0,0,-0.1241,-0.1253,-0.1253,-0.1258,-0.1291,-0.133,-0.1335,-0.1341,-0.1329,-0.1342,-0.1345,-0.132,-0.1353,-0.1333,-0.1334,-0.1354,-0.1373,-0.1377,-0.1381,-0.1423,-0.1433,-0.1441,0,0,0,0,0,0,-0.1236,-0.1254,-0.1254,-0.1272,-0.13,-0.1328,-0.1341,-0.1346,-0.136,-0.1351,-0.1343,-0.1342,-0.1368,-0.1361,-0.1339,-0.139,-0.1359,-0.1364,-0.1391,-0.14,-0.1408,-0.1409,-0.1304,0,0,0,0,0,-0.1235,-0.124,-0.127,-0.1285,-0.1298,-0.132,-0.1335,-0.1341,-0.1358,-0.1363,-0.1367,-0.1373,-0.1389,-0.1393,-0.1404,-0.1431,-0.144,-0.1446,-0.1453,-0.146,-0.1464,-0.1503,-0.1514,-0.1396,-0.1396,-0.1396,0,0,-0.1238,-0.1248,-0.1252,-0.1283,-0.1301,-0.1335,-0.1325,-0.1351,-0.1379,-0.1359,-0.1393,-0.1398,-0.1403,-0.1436,-0.1446,-0.1429,-0.1503,-0.1465,-0.147,-0.147,-0.1509,-0.152,-0.153,-0.1399,-0.1399,-0.1398,0,0,-0.1252,-0.1256,-0.1268,-0.1295,-0.1324,-0.1343,-0.1352,-0.1386,-0.1398,-0.1433,-0.1431,-0.1456,-0.1471,-0.1493,-0.1501,-0.1559,-0.1542,-0.1555,-0.159,-0.1629,-0.1638,-0.1647,-0.169,-0.1702,-0.1556,-0.1556,-0.1557,0,-0.1259,-0.1277,-0.1282,-0.131,-0.1335,-0.1349,-0.1383,-0.1407,-0.1445,-0.1464,-0.1446,-0.1503,-0.1504,-0.1558,-0.1574,-0.1575,-0.159,-0.1551,-0.1637,-0.1646,-0.1654,-0.1696,-0.1709,-0.1559,-0.1559,-0.1559,-0.1558,0,-0.1289,-0.1307,-0.1321,-0.1355,-0.1384,-0.1416,-0.1451,-0.1479,-0.1488,-0.1513,-0.1563,-0.1578,-0.1609,-0.1619,-0.1608,-0.1671,-0.1663,-0.1642,-0.161,-0.1668,-0.171,-0.1722,-0.1563,-0.1562,-0.1562,-0.1561,0,0,-0.131,-0.1334,-0.1342,-0.1357,-0.1409,-0.1434,-0.1485,-0.1538,-0.157,-0.1603,-0.1651,-0.1688,-0.1689,-0.17,-0.1703,-0.1735,-0.1806,-0.1707,-0.1708,-0.1743,-0.1896,-0.1907,-0.1921,-0.1792,-0.1794,-0.1795,-0.1908,0,-0.1339,-0.1375,-0.1389,-0.1439,-0.1468,-0.1496,-0.1543,-0.1588,-0.1622,-0.1673,-0.1702,-0.1741,-0.1724,-0.1733,-0.1769,-0.1788,-0.1837,-0.1778,-0.184,-0.1843,-0.1839,-0.1936,-0.1785,-0.1874,-0.1919,-0.1921,-0.1923,0,-0.1381,-0.1394,-0.1436,-0.1471,-0.1487,-0.1519,-0.1585,-0.1626,-0.1699,-0.1723,-0.1773,-0.1791,-0.1851,-0.1819,-0.1903,-0.1859,-0.1887,-0.1905,-0.191,-0.1909,-0.1877,-0.1821,-0.1894,-0.1695,-0.1941,-0.194,-0.1938,0,-0.1394,-0.1434,-0.1457,-0.1475,-0.1522,-0.1545,-0.157,-0.1642,-0.1677,-0.1754,-0.1785,-0.1856,-0.1883,-0.1931,-0.197,-0.1933,-0.2064,-0.2017,-0.207,-0.2071,-0.1951,-0.1938,-0.183,-0.21,-0.21,-0.21,-0.2099,0,-0.1433,-0.1453,-0.1457,-0.1476,-0.1508,-0.1539,-0.1587,-0.1629,-0.1693,-0.1743,-0.1799,-0.1853,-0.1907,-0.1982,-0.201,-0.2091,-0.2103,-0.2105,-0.2111,-0.1967,-0.1955,-0.1782,-0.1774,-0.2104,-0.2103,-0.2102,-0.2101,0,-0.1459,-0.1461,-0.1489,-0.1514,-0.1518,-0.1541,-0.1576,-0.1611,-0.1671,-0.174,-0.1761,-0.186,-0.1965,-0.2045,-0.2138,-0.2143,-0.2157,-0.2245,-0.2082,-0.2068,-0.191,-0.1915,-0.2023,-0.1979,-0.2312,-0.2314,-0.2315,0,-0.1474,-0.1487,-0.1504,-0.1508,-0.1516,-0.1538,-0.1555,-0.16,-0.1634,-0.1744,-0.1775,-0.1904,-0.1996,-0.2158,-0.2209,-0.2307,-0.2226,-0.2205,-0.2115,-0.1909,-0.1917,-0.1963,-0.1919,-0.1978,-0.1976,-0.1975,-0.1974,0,-0.1503,-0.1504,-0.1519,-0.1524,-0.153,-0.1537,-0.1556,-0.1578,-0.1639,-0.1701,-0.1793,-0.1877,-0.2044,-0.2085,-0.2221,-0.224,-0.2076,-0.2178,-0.1987,-0.169,-0.1711,-0.1665,-0.1903,-0.196,-0.1961,-0.1962,-0.1963,-0.1963,-0.1514,-0.1524,-0.1531,-0.154,-0.1544,-0.1539,-0.1529,-0.1561,-0.1607,-0.1692,-0.1783,-0.1896,-0.1904,-0.2081,-0.2052,-0.1854,-0.2068,-0.175,-0.1791,-0.1867,-0.1773,-0.2008,-0.2058,-0.2059,-0.2061,-0.2062,-0.2064,0,-0.1524,-0.1526,-0.1537,-0.1538,-0.1542,-0.1539,-0.1532,-0.1514,-0.155,-0.1669,-0.1757,-0.1809,-0.1746,-0.168,-0.151,-0.141,-0.1381,-0.1364,-0.1291,-0.1279,-0.145,-0.1366,-0.1238,-0.1238,-0.1238,-0.1238,-0.1238,-0.1239,-0.1522,-0.1528,-0.1534,-0.1535,-0.1535,-0.1495,-0.1478,-0.1459,-0.1504,-0.158,-0.1659,-0.1748,-0.1536,-0.1318,-0.0978,-0.0939,-0.086,-0.0973,-0.1018,-0.0959,-0.0992,-0.1024,-0.093,-0.0712,-0.0712,-0.072,-0.0719,-0.0719]},{"header":{"parameterUnit":"m.s-1","parameterCategory":2,"la1":30.2991,"la2":30.254,"lo1":-89.0895,"lo2":-89.0444,"dy":0.0017,"dx":0.0017,"nx":28,"ny":28,"refTime":"2024-03-05T09:00:00:Z","depth":"0","parameterNumber":3,"parameterNumberName":"V-component_of_CURRENTS"},"data":[0,0,0,0,0,0,0,0,0,0,0,0,0,0,0,0,0,0,0,0,0,0,0,0,0,0,0,0,0,0,0,0,0,0,0,0,0,0,0,0,0,0,0,0,0,0,0,0,0,0,0,0,0,0,0,0,0,0,-0.1932,-0.1931,0,-0.1846,-0.1845,-0.1844,-0.1767,-0.1766,-0.1765,-0.1764,-0.1654,-0.1652,-0.1651,0,0,0,0,0,0,0,0,0,0,0,0,0,-0.1905,-0.1907,-0.1932,-0.1931,-0.193,-0.1846,-0.1845,-0.1844,-0.1768,-0.1766,-0.1765,-0.1763,-0.1655,-0.1653,-0.165,0,0,0,0,0,0,0,0,0,0,0,0,0,-0.1881,-0.1907,-0.1933,-0.1879,-0.1873,-0.1846,-0.1845,-0.1844,-0.1768,-0.1766,-0.1764,-0.1763,-0.1656,-0.1653,-0.165,-0.1668,0,0,-0.1642,-0.1641,0,0,0,0,0,0,0,0,-0.1882,-0.1882,-0.1889,-0.1883,-0.1876,-0.1813,-0.1795,-0.1783,-0.1768,-0.1811,-0.1764,-0.1762,-0.1705,-0.1698,-0.169,-0.1663,-0.1658,-0.1642,-0.164,-0.1639,-0.1638,0,0,0,0,0,0,0,-0.1884,-0.1885,-0.1901,-0.1887,-0.188,-0.1816,-0.1812,-0.1792,-0.1771,-0.1807,-0.1801,-0.1787,-0.1701,-0.1693,-0.1687,-0.1657,-0.1642,-0.1639,-0.1637,-0.1636,-0.1636,-0.1637,0,0,0,0,0,0,-0.1898,-0.1888,-0.1904,-0.1898,-0.1872,-0.1818,-0.1814,-0.1838,-0.1771,-0.1759,-0.1789,-0.1784,-0.1698,-0.169,-0.1682,-0.1695,-0.1639,-0.1636,-0.1635,-0.1634,-0.1636,-0.1638,0,0,0,0,0,0,-0.1899,-0.1902,-0.1907,-0.1885,-0.1881,-0.1821,-0.1848,-0.1837,-0.1826,-0.1757,-0.1744,-0.1788,-0.1697,-0.1686,-0.1674,-0.169,-0.1635,-0.1632,-0.1632,-0.1635,-0.1637,-0.1723,0,0,0,0,0,0,-0.1899,-0.1904,-0.1924,-0.1888,-0.1883,-0.1909,-0.1849,-0.1836,-0.1819,-0.1812,-0.1753,-0.174,-0.1694,-0.1678,-0.1671,-0.1685,-0.163,-0.163,-0.1633,-0.1636,-0.1718,-0.1728,-0.1737,0,0,0,0,0,-0.1899,-0.1942,-0.1927,-0.1928,-0.1916,-0.191,-0.1903,-0.1853,-0.1821,-0.1834,-0.1789,-0.1742,-0.1692,-0.1678,-0.1669,-0.1682,-0.1629,-0.1632,-0.1636,-0.1714,-0.1726,-0.1737,0,0,0,0,0,0,-0.1949,-0.1937,-0.192,-0.196,-0.1941,-0.1896,-0.1898,-0.1866,-0.1842,-0.1832,-0.1764,-0.175,-0.1743,-0.1712,-0.1697,-0.1694,-0.1653,-0.1655,-0.1715,-0.1726,-0.1736,-0.1742,-0.1628,0,0,0,0,0,-0.197,-0.1995,-0.197,-0.2001,-0.1996,-0.195,-0.1938,-0.1911,-0.1881,-0.1867,-0.1821,-0.178,-0.1755,-0.1739,-0.1712,-0.1716,-0.1684,-0.172,-0.173,-0.1738,-0.1739,-0.1709,-0.1715,-0.165,-0.165,-0.165,0,0,-0.1995,-0.1992,-0.2005,-0.2011,-0.199,-0.1998,-0.1941,-0.194,-0.1941,-0.1862,-0.1852,-0.1811,-0.1764,-0.1761,-0.1756,-0.1734,-0.1746,-0.1742,-0.1749,-0.1746,-0.1713,-0.1719,-0.1725,-0.1652,-0.1652,-0.1652,0,0,-0.2051,-0.2062,-0.2092,-0.2086,-0.2066,-0.2042,-0.2047,-0.2012,-0.1993,-0.1981,-0.1925,-0.19,-0.1856,-0.1827,-0.1806,-0.1857,-0.1796,-0.1848,-0.1896,-0.1868,-0.1873,-0.1876,-0.1867,-0.1869,-0.1852,-0.1853,-0.1853,0,-0.2077,-0.2115,-0.2099,-0.2121,-0.2115,-0.2068,-0.2089,-0.2076,-0.2038,-0.2026,-0.199,-0.1927,-0.1886,-0.188,-0.1891,-0.1876,-0.1853,-0.1855,-0.1879,-0.1882,-0.1884,-0.1873,-0.1874,-0.1857,-0.1857,-0.1856,-0.1856,0,-0.2143,-0.2171,-0.2191,-0.2202,-0.2202,-0.2217,-0.219,-0.2188,-0.2148,-0.2114,-0.2093,-0.2038,-0.1993,-0.1984,-0.1946,-0.195,-0.1928,-0.1893,-0.1847,-0.1895,-0.1881,-0.1881,-0.1864,-0.1862,-0.1861,-0.186,0,0,-0.2196,-0.223,-0.2233,-0.2242,-0.2242,-0.2246,-0.2266,-0.2256,-0.2257,-0.2213,-0.2205,-0.2157,-0.2108,-0.2083,-0.2038,-0.2014,-0.2014,-0.1963,-0.1959,-0.195,-0.1963,-0.1854,-0.1842,-0.1975,-0.1975,-0.1975,-0.1955,0,-0.2241,-0.2297,-0.23,-0.2339,-0.2357,-0.2336,-0.2353,-0.2341,-0.2313,-0.23,-0.2243,-0.2213,-0.2153,-0.2127,-0.2099,-0.2028,-0.2012,-0.2023,-0.1921,-0.1919,-0.1811,-0.1837,-0.1679,-0.1637,-0.1954,-0.1954,-0.1954,0,-0.2285,-0.2315,-0.2369,-0.2392,-0.2398,-0.2417,-0.2422,-0.2432,-0.2415,-0.239,-0.2355,-0.2299,-0.226,-0.2199,-0.2111,-0.2117,-0.2051,-0.1998,-0.1995,-0.1858,-0.1807,-0.1637,-0.1624,-0.1354,-0.1952,-0.1952,-0.1952,0,-0.23,-0.2351,-0.2392,-0.2403,-0.2434,-0.245,-0.2456,-0.2454,-0.246,-0.2443,-0.2432,-0.2376,-0.2334,-0.2251,-0.2132,-0.2118,-0.2036,-0.2,-0.1852,-0.1845,-0.167,-0.1646,-0.1373,-0.1947,-0.1948,-0.1948,-0.1948,0,-0.2333,-0.2358,-0.2403,-0.2427,-0.2463,-0.2473,-0.2506,-0.2506,-0.2513,-0.2523,-0.2471,-0.2463,-0.2338,-0.2269,-0.2168,-0.2004,-0.2061,-0.186,-0.1824,-0.1698,-0.1678,-0.1402,-0.1319,-0.1947,-0.1947,-0.1947,-0.1947,0,-0.234,-0.237,-0.2414,-0.2461,-0.2474,-0.2495,-0.2531,-0.2555,-0.2555,-0.2571,-0.2563,-0.2517,-0.2426,-0.2309,-0.2178,-0.203,-0.1743,-0.1837,-0.1705,-0.1651,-0.1222,-0.1153,-0.0969,-0.0866,-0.1654,-0.1651,-0.1648,0,-0.2342,-0.2379,-0.2439,-0.2462,-0.2485,-0.2521,-0.2551,-0.2569,-0.2594,-0.2603,-0.2612,-0.2543,-0.2515,-0.2286,-0.2009,-0.1806,-0.1658,-0.1502,-0.1429,-0.1164,-0.1062,-0.108,-0.101,-0.1252,-0.1247,-0.1242,-0.1239,0,-0.2357,-0.2388,-0.2425,-0.2488,-0.2523,-0.2568,-0.2609,-0.2636,-0.266,-0.2682,-0.2704,-0.2693,-0.2441,-0.2158,-0.1841,-0.1647,-0.1272,-0.1399,-0.1145,-0.0734,-0.0718,-0.0611,-0.1327,-0.1198,-0.1203,-0.1205,-0.1208,-0.1209,-0.2356,-0.2387,-0.2454,-0.2508,-0.2554,-0.2618,-0.2654,-0.2709,-0.2763,-0.2815,-0.2794,-0.2777,-0.2267,-0.1803,-0.1553,-0.082,-0.1004,-0.0595,-0.0544,-0.0598,-0.0441,-0.1074,-0.0885,-0.0887,-0.0889,-0.089,-0.0892,0,-0.2366,-0.2417,-0.2474,-0.2545,-0.2611,-0.263,-0.27,-0.2749,-0.2827,-0.2869,-0.2909,-0.2477,-0.193,-0.1349,-0.0386,0.0003,0.0046,0.0199,0.0253,0.0272,-0.0263,-0.0176,0.0203,0.0202,0.0202,0.0202,0.0201,0.0201,-0.2368,-0.2435,-0.248,-0.2588,-0.264,-0.2724,-0.2764,-0.2841,-0.2881,-0.2834,-0.2675,-0.2526,-0.1491,-0.0223,0.0707,0.0811,0.0999,0.0986,0.1001,0.0729,0.066,0.0593,0.0702,0.1258,0.126,0.155,0.1554,0.1557]}],[{"header":{"parameterUnit":"m.s-1","parameterCategory":2,"la1":30.2991,"la2":30.254,"lo1":-89.0895,"lo2":-89.0444,"dy":0.0017,"dx":0.0017,"nx":28,"ny":28,"refTime":"2024-03-05T09:00:00:Z","depth":"2","parameterNumber":2,"parameterNumberName":"U-component_of_CURRENTS"},"data":[0,0,0,0,0,0,0,0,0,0,0,0,0,0,0,0,0,0,0,0,0,0,0,0,0,0,0,0,0,0,0,0,0,0,0,0,0,0,0,0,0,0,0,0,0,0,0,0,0,0,0,0,0,0,0,0,0,0,-0.1273,-0.1272,0,-0.1271,-0.1271,-0.1272,-0.1306,-0.1306,-0.1307,-0.1307,-0.1333,-0.1334,-0.1334,0,0,0,0,0,0,0,0,0,0,0,0,0,-0.1285,-0.1285,-0.1273,-0.1272,-0.1272,-0.1271,-0.1271,-0.1272,-0.1306,-0.1306,-0.1307,-0.1308,-0.1333,-0.1334,-0.1334,0,0,0,0,0,0,0,0,0,0,0,0,0,-0.1285,-0.1285,-0.1273,-0.1286,-0.1287,-0.1271,-0.1271,-0.1272,-0.1305,-0.1306,-0.1307,-0.1308,-0.1333,-0.1334,-0.1334,-0.1319,0,0,-0.1335,-0.1335,0,0,0,0,0,0,0,0,-0.1285,-0.1285,-0.1284,-0.1285,-0.1286,-0.1286,-0.1285,-0.1288,-0.1305,-0.1302,-0.1307,-0.1308,-0.1317,-0.1319,-0.1322,-0.132,-0.1321,-0.1335,-0.1335,-0.1335,-0.1335,0,0,0,0,0,0,0,-0.1285,-0.1285,-0.1276,-0.1284,-0.1285,-0.1284,-0.1286,-0.1286,-0.1309,-0.1303,-0.1304,-0.1298,-0.1318,-0.1321,-0.1323,-0.1322,-0.1335,-0.1335,-0.1335,-0.1335,-0.1359,-0.136,0,0,0,0,0,0,-0.1277,-0.1285,-0.1276,-0.1276,-0.1283,-0.1283,-0.1285,-0.1288,-0.1308,-0.1311,-0.1297,-0.1299,-0.132,-0.1322,-0.1324,-0.1404,-0.1335,-0.1335,-0.1335,-0.1359,-0.1359,-0.136,0,0,0,0,0,0,-0.1278,-0.1277,-0.1276,-0.1277,-0.1276,-0.1282,-0.1285,-0.1288,-0.1304,-0.1302,-0.1307,-0.1312,-0.1321,-0.1323,-0.133,-0.1402,-0.1335,-0.1336,-0.1358,-0.1359,-0.136,-0.1504,0,0,0,0,0,0,-0.1278,-0.1277,-0.1291,-0.1276,-0.1276,-0.1276,-0.1284,-0.1287,-0.1296,-0.1299,-0.1316,-0.1319,-0.1322,-0.1329,-0.133,-0.1401,-0.1336,-0.1358,-0.1359,-0.1359,-0.1498,-0.1509,-0.1518,0,0,0,0,0,-0.1279,-0.1286,-0.1292,-0.1291,-0.129,-0.1276,-0.1277,-0.1286,-0.1296,-0.1304,-0.1311,-0.1319,-0.1336,-0.1329,-0.133,-0.1404,-0.1357,-0.1358,-0.1359,-0.1494,-0.1507,-0.1518,0,0,0,0,0,0,-0.1297,-0.129,-0.1295,-0.1301,-0.1294,-0.1281,-0.1295,-0.129,-0.1303,-0.1318,-0.1316,-0.1318,-0.1345,-0.1336,-0.1328,-0.1405,-0.1352,-0.1353,-0.1454,-0.1466,-0.1476,-0.1503,-0.1336,0,0,0,0,0,-0.1305,-0.1321,-0.13,-0.1312,-0.131,-0.1305,-0.1305,-0.1308,-0.1307,-0.1316,-0.133,-0.1341,-0.1347,-0.1375,-0.1364,-0.1412,-0.1404,-0.1456,-0.1467,-0.1476,-0.1494,-0.1518,-0.1534,-0.1363,-0.1363,-0.1363,0,0,-0.132,-0.1316,-0.1328,-0.1319,-0.1322,-0.1344,-0.131,-0.1318,-0.1358,-0.1315,-0.1385,-0.1361,-0.1353,-0.1403,-0.142,-0.1417,-0.1521,-0.1477,-0.1486,-0.1499,-0.1521,-0.1538,-0.1554,-0.1364,-0.1364,-0.1364,0,0,-0.1354,-0.1352,-0.1377,-0.1378,-0.1377,-0.1376,-0.1379,-0.1378,-0.1403,-0.1438,-0.142,-0.1437,-0.146,-0.1483,-0.1493,-0.1546,-0.1547,-0.1548,-0.1666,-0.169,-0.1705,-0.1719,-0.1746,-0.176,-0.1587,-0.1588,-0.1588,0,-0.1374,-0.1398,-0.1381,-0.1405,-0.1423,-0.1398,-0.1434,-0.1454,-0.1463,-0.1493,-0.1479,-0.1514,-0.1509,-0.1576,-0.1607,-0.158,-0.1586,-0.1632,-0.1709,-0.1721,-0.1733,-0.1757,-0.1771,-0.1595,-0.1594,-0.1593,-0.1593,0,-0.142,-0.1451,-0.1464,-0.1502,-0.152,-0.1537,-0.1556,-0.1591,-0.1614,-0.1631,-0.1682,-0.1666,-0.1689,-0.1703,-0.1685,-0.177,-0.1745,-0.1697,-0.1691,-0.176,-0.1779,-0.1792,-0.1605,-0.1602,-0.16,-0.1598,0,0,-0.1434,-0.1487,-0.1495,-0.1527,-0.157,-0.1577,-0.167,-0.172,-0.1773,-0.1803,-0.1874,-0.1901,-0.1876,-0.1881,-0.1858,-0.1909,-0.2001,-0.1864,-0.1862,-0.1916,-0.2069,-0.1872,-0.1866,-0.1975,-0.1978,-0.198,-0.2058,0,-0.1476,-0.1523,-0.1564,-0.1641,-0.166,-0.1705,-0.1784,-0.1838,-0.1881,-0.1941,-0.1957,-0.1982,-0.195,-0.1955,-0.2007,-0.1974,-0.2038,-0.1985,-0.1972,-0.1972,-0.1809,-0.1875,-0.1694,-0.1731,-0.207,-0.2072,-0.2073,0,-0.15,-0.153,-0.1587,-0.1686,-0.1706,-0.175,-0.1855,-0.1921,-0.201,-0.2052,-0.2104,-0.2096,-0.2162,-0.2105,-0.2162,-0.2131,-0.2125,-0.2115,-0.2116,-0.1891,-0.1797,-0.171,-0.1741,-0.2094,-0.2092,-0.209,-0.2089,0,-0.1457,-0.1553,-0.159,-0.1617,-0.1718,-0.1767,-0.1825,-0.1928,-0.199,-0.2087,-0.2133,-0.2205,-0.2211,-0.2241,-0.2221,-0.2203,-0.227,-0.2228,-0.2059,-0.2046,-0.1865,-0.1828,-0.2287,-0.2287,-0.2287,-0.2287,-0.2287,0,-0.1455,-0.1492,-0.1552,-0.1565,-0.1631,-0.1716,-0.1795,-0.188,-0.1986,-0.2054,-0.2143,-0.2188,-0.2245,-0.2281,-0.2273,-0.2194,-0.2308,-0.2093,-0.2054,-0.1904,-0.1872,-0.2151,-0.2134,-0.229,-0.2289,-0.2288,-0.2288,0,-0.1388,-0.1432,-0.1474,-0.1566,-0.1593,-0.162,-0.1745,-0.1805,-0.1916,-0.2007,-0.2037,-0.2178,-0.2216,-0.2264,-0.2302,-0.2212,-0.2183,-0.2131,-0.1948,-0.1882,-0.1943,-0.1933,-0.1963,-0.1957,-0.1951,-0.1947,-0.1943,0,-0.1351,-0.135,-0.1429,-0.1439,-0.1469,-0.1525,-0.1577,-0.1729,-0.1795,-0.1978,-0.201,-0.2105,-0.2127,-0.2113,-0.201,-0.1959,-0.2084,-0.1738,-0.1645,-0.1952,-0.1912,-0.191,-0.1907,-0.1494,-0.1487,-0.1481,-0.1476,0,-0.1272,-0.1287,-0.1315,-0.1335,-0.1369,-0.1436,-0.1511,-0.1568,-0.1749,-0.1835,-0.1931,-0.196,-0.1928,-0.1766,-0.1673,-0.1616,-0.1723,-0.1607,-0.2013,-0.156,-0.1503,-0.1465,-0.148,-0.1425,-0.143,-0.1434,-0.1436,-0.1438,-0.1193,-0.1189,-0.1209,-0.1232,-0.1274,-0.1326,-0.1362,-0.1474,-0.1572,-0.1705,-0.1781,-0.1745,-0.1641,-0.1372,-0.1293,-0.1221,-0.1329,-0.1258,-0.128,-0.1308,-0.1195,-0.1126,-0.096,-0.0962,-0.0964,-0.0966,-0.0968,0,-0.1095,-0.1103,-0.111,-0.1142,-0.116,-0.1213,-0.1311,-0.1346,-0.1434,-0.1543,-0.16,-0.1285,-0.1128,-0.1078,-0.0843,-0.0742,-0.0794,-0.0736,-0.0823,-0.087,-0.0913,-0.0787,-0.0441,-0.044,-0.0439,-0.0438,0,0,-0.104,-0.1017,-0.1034,-0.1021,-0.1038,-0.1057,-0.1099,-0.1174,-0.1245,-0.1236,-0.1176,-0.1216,-0.1066,-0.078,-0.0678,-0.0564,-0.0758,-0.0532,-0.0947,-0.1106,-0.1151,-0.1181,-0.1031,0,0,0,0,0]},{"header":{"parameterUnit":"m.s-1","parameterCategory":2,"la1":30.2991,"la2":30.254,"lo1":-89.0895,"lo2":-89.0444,"dy":0.0017,"dx":0.0017,"nx":28,"ny":28,"refTime":"2024-03-05T09:00:00:Z","depth":"2","parameterNumber":3,"parameterNumberName":"V-component_of_CURRENTS"},"data":[0,0,0,0,0,0,0,0,0,0,0,0,0,0,0,0,0,0,0,0,0,0,0,0,0,0,0,0,0,0,0,0,0,0,0,0,0,0,0,0,0,0,0,0,0,0,0,0,0,0,0,0,0,0,0,0,0,0,0.0366,0.0367,0,0.04,0.04,0.0401,0.0422,0.0422,0.0422,0.0422,0.0478,0.048,0.0481,0,0,0,0,0,0,0,0,0,0,0,0,0,0.0314,0.0315,0.0366,0.0367,0.0367,0.04,0.04,0.0401,0.0422,0.0422,0.0422,0.0422,0.0478,0.048,0.0481,0,0,0,0,0,0,0,0,0,0,0,0,0,0.0342,0.0316,0.0366,0.0381,0.0383,0.04,0.0401,0.0401,0.0422,0.0422,0.0422,0.0422,0.0477,0.0479,0.0481,0.0491,0,0,0.0488,0.0489,0,0,0,0,0,0,0,0,0.034,0.0344,0.0379,0.038,0.0382,0.0407,0.0403,0.0432,0.0422,0.0407,0.0422,0.0422,0.0456,0.046,0.0466,0.0494,0.0496,0.0488,0.0489,0.049,0.0491,0,0,0,0,0,0,0,0.0338,0.0342,0.038,0.0379,0.0381,0.0385,0.0389,0.0408,0.0431,0.0409,0.041,0.0414,0.0457,0.0464,0.0468,0.0497,0.0488,0.049,0.0491,0.0492,0.0544,0.0544,0,0,0,0,0,0,0.0334,0.034,0.0379,0.0381,0.0361,0.0385,0.039,0.0399,0.0431,0.0435,0.0413,0.0414,0.046,0.0465,0.047,0.0515,0.049,0.0492,0.0493,0.0544,0.0544,0.0544,0,0,0,0,0,0,0.0333,0.0337,0.0377,0.0361,0.0366,0.0386,0.0396,0.04,0.0409,0.0434,0.0439,0.042,0.0461,0.0467,0.0485,0.0516,0.0493,0.0495,0.0543,0.0544,0.0544,0.0585,0,0,0,0,0,0,0.0331,0.0337,0.0342,0.0361,0.0367,0.0389,0.0396,0.04,0.0411,0.0413,0.0441,0.0446,0.0461,0.0482,0.0487,0.0518,0.0497,0.0543,0.0543,0.0544,0.0584,0.0587,0.0589,0,0,0,0,0,0.0329,0.0338,0.0342,0.0347,0.0374,0.0389,0.0393,0.0407,0.0411,0.0416,0.0431,0.0446,0.0487,0.0483,0.049,0.0523,0.0543,0.0543,0.0544,0.0582,0.0586,0.0589,0,0,0,0,0,0,0.032,0.0342,0.0346,0.0362,0.0374,0.0393,0.0399,0.0408,0.0423,0.0425,0.0446,0.0452,0.0477,0.0486,0.0481,0.0534,0.0518,0.052,0.0545,0.0549,0.0552,0.0544,0.0498,0,0,0,0,0,0.0319,0.0332,0.0349,0.0361,0.0365,0.0381,0.0389,0.0399,0.0415,0.0422,0.0442,0.0461,0.0482,0.0503,0.0514,0.0548,0.0553,0.0571,0.0574,0.0577,0.0572,0.061,0.0617,0.0545,0.0545,0.0545,0,0,0.0318,0.0332,0.0339,0.0359,0.0369,0.0379,0.0387,0.0399,0.0415,0.0426,0.0452,0.0466,0.0487,0.0521,0.0535,0.0538,0.0597,0.0577,0.0579,0.0573,0.0611,0.0618,0.0625,0.0545,0.0545,0.0545,0,0,0.032,0.0334,0.0341,0.0351,0.0366,0.0379,0.0382,0.0402,0.0418,0.044,0.0453,0.0485,0.0512,0.0547,0.0565,0.0589,0.0599,0.059,0.062,0.0658,0.0665,0.067,0.0678,0.0685,0.0608,0.0608,0.0608,0,0.0318,0.0325,0.0345,0.0353,0.0356,0.0378,0.0381,0.0406,0.0432,0.0448,0.0449,0.0501,0.0529,0.0582,0.0595,0.0601,0.0604,0.0611,0.0664,0.067,0.0675,0.0682,0.0688,0.061,0.061,0.0609,0.0609,0,0.0323,0.0324,0.0328,0.0346,0.0359,0.0362,0.0393,0.0415,0.0435,0.046,0.0502,0.0538,0.0566,0.0596,0.0609,0.0666,0.0649,0.0654,0.066,0.0686,0.069,0.0696,0.0613,0.0612,0.0611,0.0611,0,0,0.032,0.0328,0.0326,0.0312,0.0348,0.0346,0.0392,0.0425,0.0437,0.049,0.0513,0.0584,0.0597,0.0616,0.0645,0.0701,0.0756,0.0698,0.0699,0.0714,0.0815,0.0804,0.0809,0.0772,0.0773,0.0774,0.0801,0,0.0308,0.0297,0.0319,0.0305,0.0294,0.0332,0.0358,0.0399,0.044,0.0471,0.0544,0.0558,0.0607,0.0606,0.0682,0.0722,0.0774,0.0746,0.078,0.078,0.0776,0.0817,0.0739,0.0756,0.0806,0.0807,0.0808,0,0.0303,0.0286,0.0265,0.0251,0.0251,0.0246,0.0273,0.0299,0.0377,0.0406,0.0471,0.0511,0.0597,0.0618,0.074,0.0716,0.0765,0.081,0.0813,0.0791,0.0782,0.0739,0.0765,0.0818,0.0817,0.0817,0.0816,0,0.0265,0.0246,0.0215,0.0211,0.0213,0.0202,0.0201,0.0266,0.0274,0.0342,0.0348,0.0469,0.0482,0.0599,0.0712,0.0716,0.0835,0.0847,0.0885,0.0883,0.0817,0.0808,0.0928,0.0927,0.0927,0.0927,0.0927,0,0.0246,0.0214,0.0171,0.0149,0.0094,0.0118,0.0082,0.0121,0.0157,0.0154,0.0278,0.0299,0.0475,0.0575,0.0695,0.081,0.0821,0.0892,0.09,0.0827,0.0819,0.087,0.0863,0.0928,0.0928,0.0928,0.0928,0,0.0221,0.0202,0.0144,0.0097,0.0072,0.0021,-0.0026,-0.0044,-0.0003,-0.0002,0.0004,0.0154,0.0286,0.0472,0.0646,0.0748,0.088,0.0913,0.0805,0.0801,0.0903,0.0897,0.0956,0.0956,0.0956,0.0956,0.0956,0,0.0212,0.0178,0.0085,0.0025,-0.0012,-0.0092,-0.0138,-0.0128,-0.0146,-0.0092,-0.0095,0.003,0.0145,0.0411,0.0613,0.0819,0.0862,0.0846,0.0857,0.091,0.0911,0.0905,0.09,0.0777,0.0775,0.0774,0.0773,0,0.0181,0.0139,0.0086,-0.0039,-0.0128,-0.0219,-0.0293,-0.0326,-0.031,-0.03,-0.0255,-0.016,0.0097,0.0323,0.0597,0.0707,0.0818,0.0827,0.0918,0.0786,0.0745,0.0745,0.0745,0.0763,0.0764,0.0764,0.0765,0.0765,0.0149,0.0093,0.0008,-0.0105,-0.0215,-0.0334,-0.0419,-0.0463,-0.05,-0.047,-0.0361,-0.0189,0.0075,0.047,0.0606,0.072,0.0764,0.08,0.0802,0.0806,0.0785,0.0747,0.0759,0.076,0.0761,0.0762,0.0762,0,0.0115,0.0044,-0.0057,-0.0204,-0.0333,-0.0387,-0.0509,-0.0566,-0.0624,-0.0542,-0.0468,-0.0108,0.0142,0.0396,0.0556,0.068,0.0663,0.0684,0.0646,0.0655,0.0664,0.0635,0.057,0.057,0.057,0.057,0,0,0.0091,0.0001,-0.0045,-0.0264,-0.0395,-0.058,-0.0663,-0.0714,-0.0691,-0.0573,-0.0413,-0.0148,0.0175,0.0293,0.0427,0.0465,0.0501,0.0448,0.0584,0.0521,0.0527,0.0713,0.0677,0,0,0,0,0]}],[{"header":{"parameterUnit":"m.s-1","parameterCategory":2,"la1":30.2991,"la2":30.254,"lo1":-89.0895,"lo2":-89.0444,"dy":0.0017,"dx":0.0017,"nx":28,"ny":28,"refTime":"2024-03-05T09:00:00:Z","depth":"4","parameterNumber":2,"parameterNumberName":"U-component_of_CURRENTS"},"data":[0,0,0,0,0,0,0,0,0,0,0,0,0,0,0,0,0,0,0,0,0,0,0,0,0,0,0,0,0,0,0,0,0,0,0,0,0,0,0,0,0,0,0,0,0,0,0,0,0,0,0,0,0,0,0,0,0,0,-0.0876,-0.0876,0,-0.09,-0.0901,-0.0901,-0.0927,-0.0927,-0.0928,-0.0928,-0.0963,-0.0964,-0.0964,0,0,0,0,0,0,0,0,0,0,0,0,0,-0.0839,-0.084,-0.0876,-0.0876,-0.0877,-0.09,-0.0901,-0.0901,-0.0927,-0.0927,-0.0928,-0.0928,-0.0963,-0.0964,-0.0964,0,0,0,0,0,0,0,0,0,0,0,0,0,-0.0858,-0.084,-0.0876,-0.0893,-0.0895,-0.09,-0.0901,-0.0901,-0.0927,-0.0927,-0.0928,-0.0929,-0.0963,-0.0964,-0.0965,-0.0956,0,0,-0.0967,-0.0967,0,0,0,0,0,0,0,0,-0.0857,-0.0859,-0.089,-0.0892,-0.0894,-0.0912,-0.0901,-0.092,-0.0926,-0.0914,-0.0928,-0.0929,-0.0947,-0.0949,-0.0951,-0.0958,-0.0959,-0.0967,-0.0968,-0.0968,-0.0968,0,0,0,0,0,0,0,-0.0856,-0.0858,-0.0885,-0.089,-0.0893,-0.0895,-0.0899,-0.0904,-0.0926,-0.0915,-0.0917,-0.0921,-0.0948,-0.095,-0.0952,-0.096,-0.0967,-0.0968,-0.0968,-0.0969,-0.1001,-0.1001,0,0,0,0,0,0,-0.0854,-0.0857,-0.0884,-0.0886,-0.0878,-0.0896,-0.0899,-0.0905,-0.0926,-0.093,-0.092,-0.0922,-0.0949,-0.0951,-0.0954,-0.0985,-0.0968,-0.0969,-0.0969,-0.1,-0.1001,-0.1001,0,0,0,0,0,0,-0.0853,-0.0856,-0.0883,-0.0872,-0.0876,-0.0896,-0.0902,-0.0905,-0.0921,-0.093,-0.0934,-0.0935,-0.0949,-0.0953,-0.0969,-0.0985,-0.0969,-0.097,-0.1,-0.1,-0.1001,-0.1022,0,0,0,0,0,0,-0.0852,-0.0856,-0.0865,-0.0872,-0.0877,-0.0894,-0.0901,-0.0905,-0.0922,-0.0925,-0.0943,-0.0947,-0.095,-0.0967,-0.0969,-0.0986,-0.097,-0.0999,-0.1,-0.1001,-0.102,-0.1023,-0.1025,0,0,0,0,0,-0.0851,-0.0858,-0.0865,-0.0869,-0.0887,-0.0895,-0.0897,-0.0912,-0.0922,-0.0929,-0.0942,-0.0947,-0.0974,-0.0968,-0.0971,-0.0987,-0.0999,-0.1,-0.1001,-0.102,-0.1022,-0.1025,0,0,0,0,0,0,-0.0847,-0.0862,-0.087,-0.0882,-0.0892,-0.09,-0.0909,-0.0918,-0.0934,-0.094,-0.0949,-0.0953,-0.0971,-0.0975,-0.0969,-0.0998,-0.0988,-0.0989,-0.1001,-0.1004,-0.1006,-0.1004,-0.0971,0,0,0,0,0,-0.085,-0.0861,-0.0872,-0.0883,-0.0889,-0.0901,-0.0909,-0.0918,-0.093,-0.0938,-0.0951,-0.0964,-0.0973,-0.0986,-0.099,-0.1008,-0.1009,-0.1021,-0.1023,-0.1025,-0.1024,-0.1042,-0.1045,-0.1004,-0.1004,-0.1004,0,0,-0.0852,-0.0862,-0.0869,-0.0884,-0.0893,-0.0899,-0.0908,-0.0922,-0.0933,-0.0939,-0.0961,-0.0969,-0.0977,-0.0995,-0.1005,-0.1004,-0.1036,-0.1026,-0.1027,-0.1026,-0.1043,-0.1047,-0.1051,-0.1004,-0.1004,-0.1004,0,0,-0.0853,-0.087,-0.0877,-0.0885,-0.09,-0.0907,-0.0914,-0.0928,-0.0944,-0.0959,-0.0968,-0.0986,-0.1001,-0.1014,-0.1021,-0.1038,-0.1042,-0.1043,-0.1061,-0.1079,-0.1082,-0.1085,-0.1089,-0.1092,-0.1052,-0.1052,-0.1052,0,-0.0855,-0.0863,-0.088,-0.0885,-0.0891,-0.0911,-0.0915,-0.0932,-0.0952,-0.0967,-0.097,-0.1002,-0.1009,-0.1037,-0.1042,-0.1044,-0.1049,-0.1052,-0.1082,-0.1085,-0.1088,-0.1091,-0.1094,-0.1053,-0.1053,-0.1053,-0.1052,0,-0.0856,-0.0865,-0.0869,-0.0883,-0.0894,-0.09,-0.0921,-0.0943,-0.0962,-0.0979,-0.1011,-0.1023,-0.1044,-0.1052,-0.1052,-0.1082,-0.1077,-0.1077,-0.1076,-0.1094,-0.1095,-0.1098,-0.1054,-0.1054,-0.1054,-0.1053,0,0,-0.0842,-0.0865,-0.0866,-0.0866,-0.0891,-0.0893,-0.0925,-0.0951,-0.0976,-0.1003,-0.1033,-0.1054,-0.1069,-0.1077,-0.1088,-0.1107,-0.113,-0.1104,-0.1105,-0.1108,-0.1162,-0.1083,-0.1079,-0.114,-0.1141,-0.1141,-0.1154,0,-0.0833,-0.0837,-0.0856,-0.0859,-0.0856,-0.0889,-0.0913,-0.0945,-0.0981,-0.1018,-0.105,-0.1076,-0.1078,-0.1092,-0.1113,-0.1125,-0.114,-0.1126,-0.1144,-0.1144,-0.1072,-0.108,-0.1144,-0.1156,-0.1157,-0.1158,-0.1158,0,-0.0819,-0.0821,-0.0822,-0.0837,-0.0841,-0.0847,-0.0889,-0.0917,-0.0983,-0.1015,-0.1061,-0.109,-0.1127,-0.1122,-0.1159,-0.1152,-0.1155,-0.1164,-0.1165,-0.1084,-0.107,-0.1136,-0.1164,-0.1163,-0.1163,-0.1163,-0.1162,0,-0.0783,-0.0794,-0.0792,-0.0795,-0.082,-0.0828,-0.0847,-0.0909,-0.0934,-0.1015,-0.1041,-0.1102,-0.1124,-0.115,-0.117,-0.1169,-0.1203,-0.1203,-0.1135,-0.1129,-0.1189,-0.1186,-0.1222,-0.1222,-0.1222,-0.1222,-0.1222,0,-0.0755,-0.0753,-0.0768,-0.0761,-0.0747,-0.0789,-0.0798,-0.0843,-0.0908,-0.0925,-0.1027,-0.1042,-0.1132,-0.1165,-0.1179,-0.1161,-0.1209,-0.1132,-0.1127,-0.1196,-0.1194,-0.1191,-0.1187,-0.1222,-0.1222,-0.1222,-0.1222,0,-0.0712,-0.0732,-0.0716,-0.0728,-0.0724,-0.0712,-0.0734,-0.0747,-0.0834,-0.0862,-0.0886,-0.1,-0.1045,-0.1123,-0.117,-0.1153,-0.1158,-0.1139,-0.1205,-0.1204,-0.1071,-0.1068,-0.1062,-0.1059,-0.1057,-0.1055,-0.1053,0,-0.0692,-0.0683,-0.0668,-0.0642,-0.0637,-0.0626,-0.0614,-0.0686,-0.0698,-0.0807,-0.0801,-0.0898,-0.0959,-0.0971,-0.1062,-0.1106,-0.1097,-0.1097,-0.1085,-0.1059,-0.1055,-0.1056,-0.1056,-0.105,-0.1049,-0.1048,-0.1048,0,-0.0639,-0.064,-0.0616,-0.0559,-0.0524,-0.0497,-0.0487,-0.0487,-0.0572,-0.0658,-0.0694,-0.076,-0.0819,-0.0898,-0.0956,-0.0978,-0.1099,-0.1073,-0.1078,-0.1066,-0.1044,-0.1043,-0.1046,-0.104,-0.1041,-0.1042,-0.1042,0,-0.0588,-0.0549,-0.0516,-0.0457,-0.0418,-0.037,-0.0381,-0.038,-0.0408,-0.0538,-0.0531,-0.0661,-0.0763,-0.0829,-0.0865,-0.0907,-0.09,-0.0877,-0.0892,-0.0902,-0.0853,-0.0802,-0.0712,0,0,0,0,0,-0.0524,-0.0469,-0.0416,-0.0336,-0.0304,-0.0286,-0.0295,-0.0324,-0.0396,-0.0386,-0.0466,-0.0517,-0.0617,-0.0691,-0.0708,-0.0815,-0.091,-0.0832,-0.089,-0.0996,-0.1005,-0.0968,0,0,0,0,0,0,-0.0474,-0.042,-0.0384,-0.0257,-0.0195,-0.0147,-0.0156,-0.021,-0.0216,-0.0314,-0.0371,-0.0463,-0.0572,-0.0592,-0.0687,-0.0713,-0.0735,-0.0916,-0.0914,-0.0991,-0.0999,-0.1006,-0.0971,0,0,0,0,0]},{"header":{"parameterUnit":"m.s-1","parameterCategory":2,"la1":30.2991,"la2":30.254,"lo1":-89.0895,"lo2":-89.0444,"dy":0.0017,"dx":0.0017,"nx":28,"ny":28,"refTime":"2024-03-05T09:00:00:Z","depth":"4","parameterNumber":3,"parameterNumberName":"V-component_of_CURRENTS"},"data":[0,0,0,0,0,0,0,0,0,0,0,0,0,0,0,0,0,0,0,0,0,0,0,0,0,0,0,0,0,0,0,0,0,0,0,0,0,0,0,0,0,0,0,0,0,0,0,0,0,0,0,0,0,0,0,0,0,0,0.0285,0.0286,0,0.0312,0.0312,0.0312,0.0325,0.0325,0.0325,0.0325,0.0349,0.035,0.035,0,0,0,0,0,0,0,0,0,0,0,0,0,0.0239,0.024,0.0285,0.0286,0.0286,0.0312,0.0312,0.0312,0.0325,0.0325,0.0325,0.0325,0.0349,0.035,0.035,0,0,0,0,0,0,0,0,0,0,0,0,0,0.0261,0.024,0.0285,0.0296,0.0297,0.0312,0.0312,0.0312,0.0325,0.0325,0.0325,0.0325,0.0349,0.035,0.0351,0.0355,0,0,0.0353,0.0354,0,0,0,0,0,0,0,0,0.026,0.0263,0.0294,0.0295,0.0296,0.0315,0.0305,0.0327,0.0325,0.0314,0.0325,0.0325,0.0338,0.034,0.0344,0.0357,0.0358,0.0353,0.0354,0.0354,0.0355,0,0,0,0,0,0,0,0.0259,0.0262,0.0295,0.0294,0.0296,0.0297,0.03,0.0309,0.0325,0.0315,0.0316,0.0319,0.0339,0.0343,0.0345,0.0358,0.0353,0.0354,0.0355,0.0355,0.0381,0.0381,0,0,0,0,0,0,0.0257,0.0261,0.0294,0.0296,0.0279,0.0298,0.0301,0.0309,0.0325,0.0327,0.0319,0.032,0.0341,0.0344,0.0346,0.0352,0.0354,0.0355,0.0356,0.0381,0.0381,0.0381,0,0,0,0,0,0,0.0256,0.026,0.0293,0.0279,0.0283,0.0299,0.0307,0.0309,0.0318,0.0329,0.0331,0.0326,0.0342,0.0344,0.0355,0.0353,0.0356,0.0357,0.0381,0.0381,0.0381,0.0366,0,0,0,0,0,0,0.0254,0.0259,0.0266,0.0279,0.0284,0.0304,0.0307,0.031,0.032,0.0322,0.0335,0.0337,0.0342,0.0354,0.0356,0.0355,0.0357,0.0381,0.0381,0.0381,0.0366,0.0366,0.0365,0,0,0,0,0,0.0253,0.0263,0.0266,0.027,0.0292,0.0305,0.0307,0.0318,0.0321,0.0326,0.0334,0.0337,0.0357,0.0355,0.0358,0.0356,0.0381,0.0381,0.0381,0.0367,0.0366,0.0365,0,0,0,0,0,0,0.025,0.0265,0.0269,0.0285,0.0294,0.0307,0.0314,0.032,0.033,0.0332,0.034,0.0343,0.035,0.0358,0.0355,0.0365,0.0369,0.037,0.0357,0.0356,0.0356,0.034,0.0358,0,0,0,0,0,0.0251,0.0262,0.0274,0.0287,0.0291,0.0303,0.031,0.0316,0.0326,0.0331,0.034,0.0348,0.0353,0.0359,0.0366,0.0373,0.0392,0.0374,0.0374,0.0373,0.0363,0.0391,0.0392,0.0382,0.0382,0.0382,0,0,0.0255,0.0264,0.0271,0.0287,0.0295,0.0293,0.0307,0.0318,0.0313,0.0332,0.0333,0.0347,0.0355,0.036,0.0365,0.0367,0.039,0.0373,0.0373,0.0362,0.0391,0.0392,0.0393,0.0383,0.0382,0.0382,0,0,0.026,0.0273,0.028,0.0282,0.0293,0.0295,0.0298,0.0311,0.0314,0.032,0.0329,0.0342,0.0353,0.0358,0.036,0.0362,0.0385,0.0367,0.0352,0.0379,0.038,0.0381,0.0424,0.0429,0.0368,0.0368,0.0368,0,0.0263,0.0267,0.0283,0.0282,0.0274,0.0293,0.0282,0.0291,0.0305,0.0303,0.0317,0.0334,0.0348,0.0346,0.0348,0.0359,0.0385,0.0353,0.0378,0.0379,0.038,0.0424,0.043,0.0367,0.0367,0.0367,0.0367,0,0.0264,0.0263,0.0266,0.0263,0.026,0.0257,0.0259,0.0262,0.0269,0.0276,0.0284,0.031,0.0317,0.0329,0.0339,0.035,0.0371,0.0374,0.0379,0.038,0.0427,0.0433,0.0366,0.0366,0.0366,0.0367,0,0,0.0274,0.0267,0.0266,0.0244,0.0242,0.0233,0.0226,0.0218,0.0205,0.0236,0.0228,0.0253,0.0275,0.028,0.0303,0.0331,0.0374,0.0355,0.0357,0.0396,0.0452,0.0408,0.0411,0.0385,0.0385,0.0386,0.0488,0,0.0265,0.0248,0.0244,0.021,0.0192,0.0188,0.0168,0.0165,0.0175,0.0178,0.0214,0.0221,0.0254,0.0262,0.0296,0.0349,0.0386,0.0347,0.0445,0.0448,0.0407,0.0415,0.0387,0.0492,0.0494,0.0495,0.0495,0,0.026,0.0242,0.0214,0.0158,0.0148,0.0128,0.0089,0.0078,0.0091,0.0099,0.0127,0.0161,0.0205,0.0235,0.0334,0.0309,0.0376,0.0426,0.0431,0.0394,0.0415,0.0486,0.0506,0.0506,0.0505,0.0504,0.0503,0,0.0249,0.0211,0.018,0.0166,0.0122,0.0095,0.0067,0.0058,0.0039,0.0061,0.006,0.012,0.0154,0.0238,0.0347,0.0344,0.0464,0.0472,0.05,0.05,0.0516,0.0514,0.0542,0.0542,0.0541,0.0541,0.0541,0,0.0234,0.0206,0.0169,0.0153,0.009,0.0066,0.0011,0.0001,-0.0013,-0.003,0.0022,0.0036,0.0156,0.0241,0.0339,0.0437,0.0462,0.0494,0.0515,0.0511,0.0507,0.0522,0.0519,0.0545,0.0544,0.0543,0.0543,0,0.0236,0.0218,0.0177,0.012,0.0091,0.0051,-0.003,-0.0063,-0.0073,-0.0087,-0.008,-0.0013,0.0098,0.0223,0.0373,0.0417,0.0521,0.0553,0.0552,0.0572,0.0546,0.0541,0.0587,0.0586,0.0586,0.0585,0.0585,0,0.0234,0.0221,0.0163,0.0129,0.0102,0.0029,-0.0023,-0.0077,-0.011,-0.0113,-0.0115,-0.0021,0.0042,0.0228,0.035,0.0524,0.054,0.058,0.0545,0.0531,0.0547,0.0543,0.0539,0.0583,0.0583,0.0583,0.0583,0,0.0233,0.0228,0.0198,0.0137,0.0076,-0.0004,-0.008,-0.0119,-0.0168,-0.0177,-0.0139,-0.0053,0.0069,0.022,0.0353,0.0475,0.0538,0.0572,0.0575,0.0543,0.0527,0.0543,0.054,0.058,0.0581,0.0581,0.0581,0,0.024,0.0225,0.0199,0.0137,0.0072,-0.0007,-0.0068,-0.0122,-0.0166,-0.018,-0.0156,-0.0033,0.0044,0.0196,0.032,0.0428,0.0445,0.0448,0.0457,0.0461,0.0379,0.0338,0.0347,0,0,0,0,0,0.0248,0.0235,0.0188,0.0121,0.0063,0.0027,-0.0086,-0.0145,-0.0202,-0.0179,-0.0176,-0.0061,0.0099,0.0173,0.0278,0.0309,0.0466,0.0427,0.0475,0.0566,0.0569,0.0487,0,0,0,0,0,0,0.0251,0.0229,0.0201,0.0133,0.01,0.0019,-0.0045,-0.0097,-0.0105,-0.0132,-0.0034,-0.0031,0.0147,0.0089,0.0303,0.0329,0.0362,0.0502,0.0503,0.0565,0.0567,0.057,0.0486,0,0,0,0,0]}]]